Weather History for Altus AFB, OK

Change the Weather History Date:

Wednesday, June 4, 2014

  Actual Average Record
Temperature  
Mean Temperature 85 °F -  
Max Temperature 101 °F 86 °F 101 °F (2014)
Min Temperature 69 °F 64 °F 61 °F (2007)
Cooling Degree Days 20    
Growing Degree Days 35 (Base 50)    
Moisture  
Dew Point 65 °F    
Average Humidity 55    
Maximum Humidity 92    
Minimum Humidity 26    
Precipitation  
Precipitation 0.00 in - - ()
Sea Level Pressure  
Sea Level Pressure 29.70 in    
Wind  
Wind Speed 14 mph (South)    
Max Wind Speed 22 mph    
Max Gust Speed 29 mph    
Visibility 10 miles    
Events      
Averages and records for this station are not official NWS values.
T = Trace of Precipitation, MM = Missing Value Source: NWS Daily Summary

Daily Weather History Graph

Daily Weather History Graph

Search for Another Location

Airport:

Trip Planner

Search our weather history database for the weather conditions in past years. The results will help you decide how hot, cold, wet, or windy it might be!

Date:

Astronomy

Jun. 04, 2014 Rise Set
Actual Time 6:24 AM CDT 8:46 PM CDT
Civil Twilight 5:55 AM CDT 9:15 PM CDT
Nautical Twilight 5:19 AM CDT 9:51 PM CDT
Astronomical Twilight 4:40 AM CDT 10:31 PM CDT
Moon 12:34 PM CDT (6/4) 12:56 AM CDT (6/4)
Length of Visible Light 15h 20m
Length of Day
14h 22m
Waxing Crescent, 39% of the Moon is Illuminated
Jun 4
Waxing Crescent
Jun 5
First Quarter
Jun 12
Full
Jun 19
Last Quarter
Jun 27
New

Hourly Weather History & Observations

Time (CDT) Temp. Heat Index Dew Point Humidity Pressure Visibility Wind Dir Wind Speed Gust Speed Precip Events Conditions
12:58 AM 78.4 °F - 66.0 °F 66% 29.77 in 10.0 mi South 12.7 mph - N/A   Clear
1:58 AM 77.0 °F - 65.8 °F 68% 29.75 in 10.0 mi SSE 13.8 mph - N/A   Clear
2:58 AM 74.5 °F - 66.2 °F 75% 29.73 in 10.0 mi SSE 9.2 mph - N/A   Clear
3:58 AM 69.8 °F - 65.8 °F 87% 29.75 in 10.0 mi South 10.4 mph - N/A   Clear
4:58 AM 70.0 °F - 66.4 °F 88% 29.72 in 10.0 mi South 11.5 mph - N/A   Clear
5:58 AM 69.4 °F - 66.7 °F 91% 29.73 in 10.0 mi SSE 8.1 mph - N/A   Clear
6:58 AM 70.3 °F - 67.8 °F 92% 29.74 in 10.0 mi SSE 9.2 mph - N/A   Clear
7:58 AM 75.7 °F - 67.6 °F 76% 29.76 in 10.0 mi South 13.8 mph - N/A   Clear
8:58 AM 80.4 °F 82.8 °F 67.3 °F 64% 29.77 in 10.0 mi South 16.1 mph - N/A   Clear
9:58 AM 82.6 °F 85.1 °F 66.9 °F 59% 29.77 in 10.0 mi South 15.0 mph - N/A   Clear
10:58 AM 85.5 °F 88.5 °F 67.8 °F 55% 29.75 in 10.0 mi South 19.6 mph 25.3 mph N/A   Clear
11:58 AM 87.8 °F 91.8 °F 68.5 °F 53% 29.74 in 10.0 mi South 16.1 mph 20.7 mph N/A   Clear
12:58 PM 90.9 °F 94.8 °F 68.4 °F 47% 29.72 in 10.0 mi South 21.9 mph 28.8 mph N/A   Clear
1:58 PM 95.0 °F 100.7 °F 69.3 °F 43% 29.71 in 10.0 mi SSW 17.3 mph 26.5 mph N/A   Partly Cloudy
2:58 PM 97.5 °F 102.6 °F 68.4 °F 38% 29.69 in 10.0 mi South 16.1 mph 23.0 mph N/A   Clear
3:58 PM 99.3 °F 102.3 °F 64.9 °F 32% 29.65 in 10.0 mi South 17.3 mph 26.5 mph N/A   Clear
4:58 PM 100.9 °F 102.7 °F 62.6 °F 28% 29.63 in 10.0 mi South 21.9 mph 26.5 mph N/A   Clear
5:58 PM 101.3 °F 102.7 °F 61.3 °F 27% 29.62 in 10.0 mi South 18.4 mph - N/A   Clear
6:58 PM 100.8 °F 101.3 °F 59.5 °F 26% 29.61 in 10.0 mi South 16.1 mph - N/A   Clear
7:58 PM 98.4 °F 97.8 °F 58.3 °F 26% 29.62 in 10.0 mi South 20.7 mph - N/A   Clear
8:58 PM 92.8 °F 92.8 °F 60.3 °F 34% 29.62 in 10.0 mi SSE 16.1 mph - N/A   Clear
9:58 PM 89.2 °F 89.3 °F 61.3 °F 39% 29.64 in 10.0 mi SE 12.7 mph - N/A   Clear
10:58 PM 87.3 °F 89.2 °F 65.1 °F 48% 29.65 in 10.0 mi SSE 16.1 mph 20.7 mph N/A   Clear
11:58 PM 84.7 °F 87.4 °F 66.7 °F 55% 29.67 in 10.0 mi SSE 15.0 mph - N/A   Clear